[[{"header":{"parameterUnit":"m.s-1","parameterCategory":1,"la1":30.2991,"la2":30.254,"lo1":-89.0895,"lo2":-89.0444,"dy":0.0017,"dx":0.0017,"nx":28,"ny":28,"refTime":"2025-09-04T09:00:00:Z","depth":0,"parameterNumber":2,"parameterNumberName":"U-component_of_WINDS"},"data":[0,0,0,0,0,0,0,0,0,0,0,0,0,0,0,0,0,0,0,0,0,0,0,0,0,0,0,0,0,0,0,0,0,0,0,0,0,0,0,0,0,0,0,0,0,0,0,0,0,0,0,0,0,0,0,0,0,0,-1.3963,-1.3963,0,-1.3938,-1.3938,-1.3937,-1.3906,-1.3905,-1.3905,-1.3904,-1.3878,-1.3877,-1.3877,0,0,0,0,0,0,0,0,0,0,0,0,0,-1.3985,-1.3985,-1.3963,-1.3963,-1.3963,-1.3938,-1.3938,-1.3937,-1.3906,-1.3905,-1.3905,-1.3904,-1.3878,-1.3877,-1.3877,0,0,0,0,0,0,0,0,0,0,0,0,0,-1.3969,-1.3984,-1.3963,-1.3944,-1.3942,-1.3938,-1.3938,-1.3937,-1.3906,-1.3905,-1.3905,-1.3904,-1.3878,-1.3877,-1.3877,-1.389,0,0,-1.3876,-1.3876,0,0,0,0,0,0,0,0,-1.397,-1.3968,-1.3947,-1.3945,-1.3943,-1.3924,-1.3935,-1.3921,-1.3906,-1.392,-1.3904,-1.3903,-1.3894,-1.3892,-1.3889,-1.3889,-1.3887,-1.3876,-1.3876,-1.3876,-1.3875,0,0,0,0,0,0,0,-1.3971,-1.3969,-1.3953,-1.3947,-1.3944,-1.3937,-1.3934,-1.3933,-1.3911,-1.3918,-1.3916,-1.3914,-1.3892,-1.3889,-1.3888,-1.3887,-1.3876,-1.3876,-1.3875,-1.3875,-1.3898,-1.3898,0,0,0,0,0,0,-1.3975,-1.397,-1.3954,-1.3952,-1.3955,-1.3937,-1.3934,-1.3931,-1.3911,-1.3907,-1.3914,-1.3912,-1.389,-1.3888,-1.3887,-1.3901,-1.3876,-1.3875,-1.3875,-1.3897,-1.3898,-1.3899,0,0,0,0,0,0,-1.3976,-1.3974,-1.3955,-1.3961,-1.3958,-1.3937,-1.3935,-1.3931,-1.3928,-1.3908,-1.3904,-1.3915,-1.389,-1.3887,-1.389,-1.39,-1.3875,-1.3875,-1.3896,-1.3897,-1.3898,-1.3929,0,0,0,0,0,0,-1.3976,-1.3974,-1.3979,-1.3961,-1.3958,-1.3958,-1.3936,-1.3931,-1.3927,-1.3924,-1.3908,-1.3904,-1.3889,-1.3891,-1.3889,-1.3899,-1.3874,-1.3895,-1.3896,-1.3898,-1.3927,-1.3932,-1.3935,0,0,0,0,0,-1.3977,-1.3988,-1.3979,-1.3977,-1.3963,-1.3959,-1.3957,-1.3939,-1.3928,-1.3933,-1.392,-1.3905,-1.3899,-1.3891,-1.3889,-1.3899,-1.3894,-1.3896,-1.3898,-1.3926,-1.3931,-1.3935,0,0,0,0,0,0,-1.4006,-1.3985,-1.3975,-1.398,-1.3972,-1.3953,-1.3958,-1.3945,-1.3939,-1.3936,-1.3915,-1.3912,-1.3917,-1.3908,-1.3899,-1.3911,-1.3894,-1.3896,-1.3916,-1.3921,-1.3925,-1.3926,-1.3874,0,0,0,0,0,-1.4014,-1.4012,-1.3994,-1.4,-1.3997,-1.3978,-1.3976,-1.3964,-1.3954,-1.395,-1.3937,-1.3928,-1.3924,-1.3922,-1.3918,-1.3927,-1.3923,-1.3933,-1.3936,-1.394,-1.3941,-1.3946,-1.395,-1.3905,-1.3905,-1.3905,0,0,-1.4028,-1.4016,-1.4016,-1.4006,-1.3998,-1.3997,-1.3975,-1.3975,-1.3974,-1.3949,-1.3951,-1.3942,-1.393,-1.3936,-1.3938,-1.3929,-1.3953,-1.3942,-1.3945,-1.3944,-1.3948,-1.3953,-1.3957,-1.3906,-1.3906,-1.3905,0,0,-1.4054,-1.4045,-1.4049,-1.4042,-1.4031,-1.4019,-1.402,-1.4004,-1.3998,-1.3999,-1.3981,-1.398,-1.3974,-1.3967,-1.3962,-1.3988,-1.3974,-1.3987,-1.4007,-1.4012,-1.4016,-1.4019,-1.4029,-1.4032,-1.3989,-1.3989,-1.3989,0,-1.4073,-1.4071,-1.4053,-1.4055,-1.4051,-1.403,-1.4035,-1.4029,-1.4016,-1.4014,-1.4004,-1.3998,-1.3988,-1.3993,-1.3999,-1.3996,-1.3998,-1.3988,-1.4017,-1.402,-1.4023,-1.4031,-1.4035,-1.3991,-1.3991,-1.3991,-1.399,0,-1.4095,-1.4095,-1.41,-1.4089,-1.4086,-1.4089,-1.4073,-1.4072,-1.4061,-1.405,-1.4053,-1.4041,-1.4035,-1.4035,-1.4023,-1.4038,-1.4033,-1.4021,-1.4003,-1.4029,-1.4037,-1.404,-1.3993,-1.3993,-1.3992,-1.3992,0,0,-1.4136,-1.4118,-1.412,-1.4115,-1.4102,-1.4101,-1.4104,-1.4098,-1.4098,-1.4091,-1.4093,-1.409,-1.4079,-1.4074,-1.4062,-1.4066,-1.4089,-1.4053,-1.4053,-1.406,-1.4105,-1.4114,-1.4118,-1.408,-1.408,-1.4081,-1.4106,0,-1.416,-1.4163,-1.4149,-1.4156,-1.4156,-1.4137,-1.414,-1.4132,-1.4123,-1.4122,-1.4111,-1.4109,-1.4095,-1.4092,-1.4096,-1.4085,-1.4097,-1.4083,-1.4081,-1.4081,-1.4084,-1.4122,-1.4132,-1.4156,-1.4109,-1.411,-1.411,0,-1.4186,-1.4181,-1.4189,-1.4177,-1.4176,-1.4179,-1.4173,-1.4172,-1.4164,-1.4157,-1.4153,-1.4139,-1.4142,-1.4127,-1.413,-1.4121,-1.412,-1.4115,-1.4115,-1.4114,-1.4097,-1.4122,-1.4163,-1.4167,-1.4115,-1.4114,-1.4114,0,-1.4216,-1.4211,-1.4216,-1.4212,-1.4198,-1.4201,-1.4195,-1.4186,-1.4184,-1.4179,-1.4178,-1.4173,-1.4171,-1.4168,-1.4154,-1.4144,-1.416,-1.4143,-1.4154,-1.4155,-1.4158,-1.4157,-1.4199,-1.4158,-1.4158,-1.4158,-1.4158,0,-1.4243,-1.4248,-1.4229,-1.4231,-1.4238,-1.4222,-1.4228,-1.422,-1.4213,-1.4214,-1.4198,-1.4199,-1.4181,-1.4181,-1.417,-1.4175,-1.4174,-1.4169,-1.4166,-1.417,-1.4171,-1.4168,-1.4166,-1.4159,-1.4159,-1.4158,-1.4158,0,-1.4276,-1.4263,-1.4267,-1.4254,-1.4251,-1.4256,-1.4245,-1.4247,-1.4238,-1.424,-1.4239,-1.4224,-1.4224,-1.421,-1.4206,-1.4199,-1.4208,-1.4202,-1.4211,-1.4209,-1.4221,-1.422,-1.4262,-1.4267,-1.4223,-1.4224,-1.4224,0,-1.4293,-1.4297,-1.4285,-1.4285,-1.428,-1.428,-1.4278,-1.4264,-1.4262,-1.4255,-1.4258,-1.4256,-1.4253,-1.4253,-1.4242,-1.4239,-1.4233,-1.4248,-1.4232,-1.4237,-1.4233,-1.4233,-1.4234,-1.4251,-1.4252,-1.4252,-1.4252,0,-1.4326,-1.432,-1.4318,-1.4315,-1.4313,-1.431,-1.4305,-1.4306,-1.429,-1.429,-1.4289,-1.4287,-1.4284,-1.4282,-1.4278,-1.4272,-1.426,-1.4258,-1.426,-1.4264,-1.4269,-1.4267,-1.422,-1.4257,-1.4256,-1.4256,-1.4256,-1.4255,-1.4351,-1.4355,-1.4347,-1.4346,-1.4342,-1.4338,-1.434,-1.4332,-1.4331,-1.4327,-1.4319,-1.432,-1.4313,-1.4306,-1.4302,-1.4303,-1.4295,-1.4298,-1.4299,-1.43,-1.4303,-1.427,-1.4302,-1.4302,-1.4301,-1.4301,-1.4301,0,-1.4383,-1.4378,-1.4377,-1.4372,-1.4372,-1.4361,-1.4356,-1.4356,-1.4357,-1.4352,-1.4351,-1.4351,-1.435,-1.434,-1.4338,-1.434,-1.4335,-1.434,-1.4339,-1.4339,-1.4309,-1.4307,-1.4345,-1.4345,-1.4345,-1.4345,-1.4345,-1.4345,-1.44,-1.4405,-1.4398,-1.4401,-1.4396,-1.4397,-1.4395,-1.4392,-1.4388,-1.4389,-1.4388,-1.4382,-1.4375,-1.4373,-1.4372,-1.4369,-1.4369,-1.4377,-1.4372,-1.4345,-1.434,-1.4336,-1.4334,-1.4377,-1.4377,-1.4401,-1.4401,-1.4401]},{"header":{"parameterUnit":"m.s-1","parameterCategory":1,"la1":30.2991,"la2":30.254,"lo1":-89.0895,"lo2":-89.0444,"dy":0.0017,"dx":0.0017,"nx":28,"ny":28,"refTime":"2025-09-04T09:00:00:Z","depth":0,"parameterNumber":3,"parameterNumberName":"V-component_of_WINDS"},"data":[0,0,0,0,0,0,0,0,0,0,0,0,0,0,0,0,0,0,0,0,0,0,0,0,0,0,0,0,0,0,0,0,0,0,0,0,0,0,0,0,0,0,0,0,0,0,0,0,0,0,0,0,0,0,0,0,0,0,2.9134,2.9134,0,2.9136,2.9136,2.9136,2.9191,2.9192,2.9193,2.9195,2.9192,2.919,2.9189,0,0,0,0,0,0,0,0,0,0,0,0,0,2.9174,2.9173,2.9134,2.9134,2.9134,2.9136,2.9136,2.9136,2.919,2.9192,2.9194,2.9195,2.9192,2.919,2.9189,0,0,0,0,0,0,0,0,0,0,0,0,0,2.9164,2.9172,2.9134,2.9161,2.9164,2.9136,2.9136,2.9136,2.919,2.9192,2.9194,2.9196,2.9193,2.9191,2.9188,2.9132,0,0,2.9182,2.9181,0,0,0,0,0,0,0,0,2.9164,2.9162,2.9157,2.9159,2.9162,2.9165,2.9149,2.9134,2.9189,2.918,2.9195,2.9197,2.9181,2.918,2.9175,2.9132,2.9132,2.9182,2.9181,2.918,2.9179,0,0,0,0,0,0,0,2.9165,2.9163,2.9134,2.9157,2.916,2.9172,2.9173,2.9146,2.9168,2.9181,2.9185,2.9185,2.9182,2.9177,2.9176,2.9132,2.9182,2.918,2.9179,2.9178,2.9043,2.904,0,0,0,0,0,0,2.9162,2.9163,2.9134,2.9134,2.9169,2.917,2.9171,2.9162,2.9169,2.9172,2.9183,2.9187,2.918,2.9178,2.9176,2.911,2.918,2.9178,2.9176,2.9045,2.9042,2.904,0,0,0,0,0,0,2.9163,2.9159,2.9134,2.915,2.9148,2.9167,2.9156,2.9161,2.9156,2.917,2.9174,2.9174,2.9181,2.9179,2.9143,2.911,2.9177,2.9175,2.9048,2.9044,2.9041,2.8978,0,0,0,0,0,0,2.9164,2.9159,2.9139,2.9149,2.9146,2.9102,2.9154,2.9159,2.9152,2.9158,2.9162,2.9165,2.9183,2.9146,2.9141,2.9109,2.9173,2.9051,2.9046,2.9042,2.8983,2.8972,2.8964,0,0,0,0,0,2.9165,2.912,2.9138,2.9134,2.9122,2.91,2.9099,2.9122,2.915,2.9129,2.9138,2.9165,2.9115,2.9142,2.9137,2.9103,2.9053,2.9047,2.9042,2.8987,2.8974,2.8964,0,0,0,0,0,0,2.9103,2.9122,2.9141,2.9098,2.9098,2.911,2.9084,2.9108,2.9098,2.9103,2.9131,2.9131,2.9091,2.9094,2.9123,2.9049,2.9089,2.9082,2.9048,2.9037,2.9027,2.9027,2.9171,0,0,0,0,0,2.9085,2.9068,2.9084,2.9045,2.9044,2.9064,2.9055,2.9073,2.9073,2.9072,2.9079,2.9077,2.9061,2.9049,2.9035,2.8984,2.8985,2.8959,2.8949,2.8941,2.8935,2.8908,2.8896,2.9023,2.9023,2.9023,0,0,2.9046,2.9054,2.9041,2.9033,2.9034,2.9014,2.9063,2.904,2.9025,2.9068,2.9035,2.904,2.9039,2.8996,2.8977,2.8997,2.89,2.8935,2.8928,2.8926,2.8901,2.8889,2.8878,2.9019,2.902,2.902,0,0,2.8966,2.897,2.8938,2.8939,2.8942,2.8956,2.8948,2.8957,2.8962,2.893,2.8962,2.8945,2.8916,2.8914,2.8909,2.8829,2.8853,2.8824,2.8773,2.8747,2.8737,2.8728,2.8698,2.8687,2.8818,2.8818,2.8818,0,2.8916,2.8889,2.8918,2.8893,2.8887,2.8928,2.8895,2.8894,2.8891,2.8886,2.8909,2.8875,2.8877,2.8833,2.8814,2.8809,2.88,2.8823,2.8736,2.8728,2.872,2.8692,2.8681,2.8814,2.8814,2.8815,2.8815,0,2.8828,2.8809,2.8782,2.878,2.8772,2.8743,2.8766,2.8754,2.8773,2.8784,2.8751,2.8755,2.8743,2.8734,2.8751,2.8692,2.8705,2.8732,2.8772,2.8703,2.8677,2.8667,2.8809,2.881,2.8811,2.8812,0,0,2.8706,2.8722,2.8712,2.8711,2.8718,2.8703,2.8675,2.8665,2.8654,2.8651,2.8627,2.8604,2.8629,2.8623,2.8641,2.8618,2.8553,2.8648,2.8648,2.8629,2.8487,2.8466,2.8453,2.857,2.8568,2.8567,2.8487,0,2.8627,2.8583,2.8608,2.8559,2.8541,2.858,2.8556,2.8557,2.8567,2.8552,2.8563,2.8545,2.858,2.8577,2.8556,2.8565,2.8525,2.8572,2.8547,2.8546,2.8544,2.844,2.8417,2.8341,2.8477,2.8475,2.8474,0,2.8528,2.8523,2.8473,2.8483,2.8477,2.8455,2.8448,2.8434,2.8435,2.8444,2.8439,2.8463,2.8435,2.8477,2.8438,2.847,2.8461,2.8465,2.8462,2.8459,2.8504,2.8432,2.8318,2.8306,2.8459,2.846,2.8461,0,2.8443,2.8423,2.8391,2.8389,2.8401,2.8385,2.8389,2.8393,2.8385,2.8378,2.8373,2.8363,2.8357,2.8348,2.8368,2.8396,2.8326,2.837,2.8332,2.8331,2.8313,2.8314,2.8194,2.8311,2.8311,2.8311,2.8311,0,2.8351,2.8318,2.8352,2.8332,2.8296,2.8326,2.8289,2.8297,2.8301,2.8281,2.8315,2.8296,2.8325,2.8308,2.8324,2.8289,2.8286,2.8292,2.8296,2.8288,2.8287,2.8281,2.8286,2.8308,2.8309,2.8309,2.831,0,2.8248,2.827,2.8237,2.8252,2.8255,2.8228,2.824,2.8221,2.8234,2.821,2.8206,2.8226,2.8208,2.8228,2.8212,2.8222,2.8175,2.8188,2.8175,2.8178,2.8139,2.8141,2.801,2.7993,2.8121,2.812,2.8119,0,2.8187,2.8163,2.8176,2.8167,2.8169,2.8153,2.8146,2.8174,2.8165,2.8166,2.8147,2.8133,2.8123,2.8093,2.8105,2.8093,2.8104,2.8059,2.8102,2.8095,2.8102,2.8102,2.81,2.8049,2.8048,2.8047,2.8046,0,2.8076,2.8088,2.8078,2.8071,2.8062,2.8058,2.8056,2.8046,2.8075,2.8063,2.8047,2.8039,2.8024,2.8009,2.8,2.8003,2.8028,2.8033,2.8023,2.8013,2.8006,2.8008,2.8149,2.8035,2.8036,2.8037,2.8037,2.8038,2.7991,2.7972,2.7978,2.7965,2.7967,2.7965,2.7948,2.796,2.7948,2.7938,2.7956,2.7935,2.7937,2.7929,2.7929,2.7912,2.7931,2.7917,2.7913,2.7909,2.7902,2.8011,2.791,2.7911,2.7911,2.7911,2.7911,0,2.788,2.7887,2.7875,2.7872,2.7862,2.789,2.7889,2.7878,2.786,2.7861,2.7851,2.7832,2.7818,2.783,2.7819,2.7803,2.7814,2.7798,2.7799,2.7799,2.7887,2.7896,2.779,2.779,2.779,2.779,2.779,2.779,2.7822,2.779,2.7803,2.7773,2.778,2.7761,2.7758,2.7756,2.7757,2.7735,2.7724,2.7733,2.7738,2.7727,2.7715,2.7719,2.7712,2.7692,2.77,2.7781,2.7793,2.7804,2.7813,2.7691,2.7691,2.7614,2.7613,2.7612]}]]